Location: Ponte Samoggia
(44.5667°N, 11.1333°E)
Time: 00:06:45
(UTC+00:00)

SL-16 R/B - Pass Details

Date: 26 May 2022
Orbit: 839 x 850 km, 71.0° (Epoch: 26 June)

Event Time Altitude Azimuth Distance (km) Brightness Sun altitude
Exits shadow 01:58:13 19° 237° (WSW) 1,888 3.4 -14.2°
Maximum altitude 02:01:56 45° 302° (WNW) 1,135 2.8 -13.8°
Drops below altitude 10° 02:07:23 10° 15° (NNE) 2,476 5.7 -13.2°
Sets 02:09:58 0° 22° (NNE) 3,417 6.8 -12.9°
